Theta_e
327 330 337 337 334 335 337 340 339 333 334 339 344 347 346 352 351 353 352 350 348 347 346 343 343 344 346 347 348 350 350 349 351 351 352 352 353 353 354 353 355 356 355 353
326 328 333 329 329 331 335 338 340 333 332 342 344 344 342 348 352 351 352 351 350 348 347 344 342 343 344 346 348 350 351 352 354 352 352 352 353 353 353 353 353 355 355 354
326 327 326 326 329 331 335 338 338 334 329 337 339 341 345 349 350 350 350 350 350 349 348 345 343 342 343 345 347 349 351 352 354 352 352 354 355 355 356 355 352 355 355 354
324 325 324 325 326 329 331 333 333 333 330 334 337 340 339 346 348 351 350 351 350 350 349 347 345 343 343 345 347 349 351 353 354 354 352 353 354 353 352 352 352 355 354 354
325 324 325 325 325 326 327 330 331 332 333 331 339 337 337 335 337 337 343 349 350 350 349 348 346 344 343 344 347 349 351 353 353 354 353 353 354 351 353 354 352 354 353 355
325 325 324 326 327 327 326 326 329 331 332 333 333 332 333 334 335 335 339 345 349 350 350 348 345 344 344 344 346 349 350 353 354 355 355 354 353 353 352 354 353 353 353 354
325 325 325 327 330 329 328 328 329 330 333 334 330 330 331 332 333 339 340 343 349 350 350 350 348 346 346 346 346 347 349 353 354 354 355 355 355 355 355 356 353 353 351 351
326 328 329 330 330 331 328 328 328 331 330 330 329 329 330 330 337 343 341 349 347 350 350 351 349 347 346 346 346 347 348 352 354 354 355 355 356 354 355 355 353 352 352 352
328 329 330 329 330 329 330 329 326 326 327 327 327 328 329 333 342 347 350 351 350 350 350 350 350 348 347 347 347 347 349 353 355 354 355 355 356 355 354 353 355 354 352 352
331 332 330 330 329 329 329 327 328 327 327 328 327 328 329 338 347 352 354 354 352 351 351 350 350 349 348 348 348 348 350 353 355 353 354 354 355 356 355 356 356 354 354 355
331 331 331 330 329 328 328 330 330 327 327 327 328 329 336 344 349 356 354 354 354 353 351 351 351 349 349 348 348 349 351 353 354 354 353 354 354 355 356 355 356 357 356 357
331 330 331 330 327 326 327 328 330 331 332 330 329 329 341 346 350 355 356 356 355 356 352 349 350 349 349 348 349 350 350 351 352 352 353 354 354 354 355 356 355 356 357 359
331 331 331 330 327 328 328 328 328 329 330 331 332 332 334 345 351 356 357 355 355 355 352 349 348 349 349 350 350 351 351 352 352 352 352 353 354 355 355 356 356 356 357 358
326 330 330 331 332 330 328 328 328 328 330 330 333 331 334 338 349 353 353 351 353 355 357 354 352 353 352 351 353 354 353 352 352 352 352 353 354 355 355 355 356 356 357 358
327 329 330 330 329 328 328 327 327 327 328 330 330 331 332 333 344 350 348 348 352 353 357 360 355 353 354 354 354 354 354 354 354 354 354 355 356 356 357 356 356 357 357 358
326 328 327 327 325 324 323 323 324 326 325 326 328 330 330 335 347 354 349 346 347 347 349 354 359 358 357 351 340 342 339 352 357 357 358 356 357 359 359 359 359 358 359 359
326 326 328 329 326 322 322 323 323 323 323 323 325 326 332 336 346 353 354 348 346 348 348 348 350 351 348 349 347 338 335 338 353 360 360 360 360 360 361 360 360 360 360 360
325 327 327 329 326 325 324 324 323 324 324 324 324 328 339 346 348 352 352 350 347 348 347 346 345 343 342 341 346 353 357 360 359 362 365 366 366 364 364 361 359 359 360 360
324 326 327 327 326 325 324 324 327 326 331 326 333 336 341 347 348 351 350 346 345 346 347 347 346 347 347 344 347 349 348 350 349 349 352 355 360 364 366 365 363 360 359 359
322 324 326 328 327 328 330 329 331 333 333 339 337 337 341 345 342 346 345 345 345 345 346 347 348 349 345 344 345 347 348 349 348 349 350 352 353 352 354 363 364 363 361 361
328 328 328 328 329 328 328 328 332 334 337 336 338 342 344 346 344 345 342 343 345 348 349 351 354 350 343 344 343 344 346 346 349 350 349 350 351 352 350 354 361 365 365 362
331 332 329 328 328 329 329 328 331 332 330 331 332 336 337 337 336 336 339 341 341 346 351 352 352 350 343 340 340 340 341 345 347 348 349 350 350 349 346 350 353 361 363 359
329 329 333 330 332 330 328 328 327 327 328 328 327 327 327 328 330 330 332 332 336 340 342 339 338 341 339 339 338 337 339 338 338 341 343 345 349 350 350 350 351 354 354 355
329 327 328 329 329 328 327 327 327 327 327 326 326 326 326 327 327 327 327 327 328 328 331 333 332 332 332 332 330 331 331 332 332 335 340 341 345 345 347 349 349 350 350 349
328 328 329 331 330 329 329 327 327 326 325 325 325 325 325 326 326 327 327 327 326 326 326 326 327 328 330 330 330 329 331 331 330 329 329 333 337 340 341 345 346 348 348 348
329 330 331 332 329 330 329 328 326 325 325 324 325 325 325 325 326 326 326 325 325 324 324 325 326 327 328 330 330 331 333 334 333 330 325 324 325 333 340 341 344 345 345 346
Wind_Speed
5 9 11 10 9 8 10 12 14 11 9 5 7 8 6 13 14 16 16 17 19 20 21 27 29 27 26 24 24 23 21 20 18 18 17 16 15 14 13 12 11 9 7 7
7 13 14 5 9 10 12 14 13 9 8 7 7 12 8 8 13 14 16 17 18 18 19 23 28 29 28 26 25 25 24 22 21 19 18 16 14 14 12 12 11 10 10 9
13 8 5 9 12 12 16 14 12 14 14 4 10 9 5 7 7 10 14 15 18 19 20 21 26 29 29 28 27 26 26 24 24 22 17 14 10 10 11 12 14 13 12 10
10 4 9 10 12 14 16 15 8 13 12 7 5 6 2 6 6 6 11 16 17 20 20 21 24 29 31 30 27 26 25 24 23 22 21 20 18 15 14 14 13 14 13 11
4 4 6 9 7 11 14 6 7 9 13 9 12 7 3 10 6 6 3 14 18 20 21 21 23 30 32 31 29 26 25 24 23 21 24 22 21 16 12 13 12 13 13 15
11 3 6 7 10 7 4 8 8 8 10 11 1 6 12 7 7 6 6 5 17 21 22 21 27 29 30 30 28 27 26 26 24 23 23 25 21 19 14 14 13 13 15 16
5 9 2 6 11 5 9 13 8 8 10 11 6 8 11 9 11 10 10 8 13 21 22 22 22 24 27 28 28 26 26 26 25 25 24 25 24 21 18 15 14 14 16 17
4 10 5 2 6 9 7 11 9 8 9 10 4 7 2 6 8 10 6 5 9 19 21 22 22 26 28 28 27 26 25 25 25 25 25 24 23 22 21 19 16 16 16 17
3 5 5 2 3 6 5 8 9 12 10 10 14 1 10 4 10 10 10 6 4 15 18 21 21 27 28 28 29 29 26 24 24 26 24 24 23 24 22 21 20 16 15 13
4 5 4 4 4 6 7 6 8 8 10 11 7 3 7 10 12 11 11 7 5 6 13 16 17 23 25 26 28 27 27 27 26 25 24 25 25 24 23 21 21 20 17 16
6 5 2 7 1 9 6 10 6 7 6 10 9 3 9 6 8 11 10 9 5 3 7 11 13 19 21 21 21 22 22 22 22 23 24 24 25 25 23 24 23 22 20 19
5 8 11 8 2 1 6 5 10 8 8 7 9 6 7 6 6 8 9 8 6 7 3 6 11 14 17 17 18 20 20 22 23 22 23 24 23 23 23 25 24 23 23 22
2 6 8 5 11 9 9 1 6 7 8 13 10 1 3 6 5 6 8 10 9 6 4 6 6 9 11 13 13 14 16 18 18 20 21 21 23 24 25 25 25 25 24 24
3 13 10 11 9 7 9 10 9 10 10 11 8 10 2 6 5 4 7 8 8 8 7 7 6 7 7 6 6 3 6 10 14 15 18 20 22 24 25 25 25 26 27 27
6 13 9 12 11 13 14 16 15 14 14 15 15 7 9 7 5 3 3 5 7 7 9 9 8 8 10 12 10 9 6 6 11 15 17 17 17 18 19 20 23 25 27 28
5 11 8 15 17 17 18 19 19 19 18 19 16 19 15 3 2 6 4 2 5 7 6 8 7 12 15 15 7 3 6 24 17 15 16 16 17 18 20 21 22 24 25 26
11 11 9 15 9 11 12 18 18 17 18 15 15 14 9 7 7 9 8 5 5 5 4 5 7 10 11 15 14 18 18 10 24 18 9 11 11 14 18 19 22 24 25 26
14 10 10 10 5 13 3 3 2 7 8 10 14 10 6 6 3 6 6 4 5 7 6 4 6 10 12 13 13 13 16 22 18 3 3 3 3 10 16 17 21 23 24 25
7 10 7 7 10 13 12 5 5 6 9 8 9 6 6 4 5 9 5 3 4 7 6 6 5 6 7 9 8 6 5 3 4 7 10 10 8 8 10 12 17 20 22 25
5 8 8 5 8 8 7 5 4 6 10 9 8 6 4 4 8 6 5 4 6 7 7 7 6 4 2 3 4 7 8 5 1 4 4 4 5 7 10 10 10 14 21 24
6 6 11 9 9 7 6 5 3 10 5 11 10 8 7 8 8 4 4 2 2 5 8 8 7 6 4 3 2 3 3 2 1 2 5 6 6 7 9 10 11 14 16 17
6 5 7 8 9 14 6 3 7 9 9 9 9 8 8 8 9 9 9 7 5 5 7 8 9 9 7 6 4 3 1 0 3 4 6 7 8 7 9 10 10 11 13 16
5 5 5 4 3 1 7 10 7 7 8 10 12 12 10 12 10 9 10 9 7 6 7 8 8 8 8 7 6 5 2 4 6 8 9 9 8 8 8 9 10 10 14 16
5 3 7 6 8 5 8 13 14 11 12 15 16 17 15 16 15 14 12 10 9 8 8 8 8 9 7 6 3 2 1 3 5 8 11 13 13 12 10 8 8 11 14 15
6 3 7 13 15 12 11 6 11 14 15 15 14 13 16 18 18 18 15 14 12 12 11 10 10 9 7 5 3 1 2 5 7 10 12 14 15 15 15 12 11 12 15 16
9 12 10 10 11 11 13 14 15 15 15 14 15 16 18 18 19 18 16 17 15 12 13 12 13 11 9 6 4 3 3 4 6 10 15 18 20 16 18 15 14 16 20 21
Wind_Direction
226 256 244 292 346 318 303 303 311 2 10 279 264 285 279 184 203 193 196 196 195 202 194 192 194 194 197 197 194 193 198 198 193 197 202 208 214 217 222 222 223 226 225 224
233 250 267 342 286 281 280 288 297 326 29 300 314 295 280 190 204 203 196 194 199 195 188 194 194 195 199 198 198 199 202 201 202 205 212 219 223 223 224 220 219 217 219 215
260 291 349 281 274 258 269 275 309 322 322 232 315 253 131 115 181 200 206 203 195 194 191 190 193 198 195 199 200 200 202 204 207 209 208 211 218 219 212 213 212 215 214 218
264 293 259 263 267 272 273 283 308 300 306 353 43 301 161 115 119 187 207 211 201 195 199 188 192 195 198 197 202 204 204 206 208 206 211 210 213 218 220 212 218 210 206 216
97 220 225 255 305 322 288 348 284 291 284 294 177 254 132 115 44 20 186 208 214 195 197 193 194 194 199 198 197 203 205 208 208 208 211 215 223 224 217 212 208 206 210 217
279 281 279 328 307 278 294 253 233 244 270 275 253 288 295 53 6 344 343 246 206 199 196 200 196 194 197 199 200 200 203 208 207 207 209 213 218 224 217 209 199 202 206 207
183 217 222 274 282 175 221 247 256 228 225 248 100 295 300 48 2 350 327 290 209 200 189 198 195 193 198 202 200 202 202 208 207 208 211 214 217 217 215 210 214 205 204 208
259 167 184 53 11 337 350 325 294 285 267 284 116 269 30 22 15 5 355 332 195 194 189 194 195 197 194 199 203 205 202 204 205 208 211 213 215 216 216 214 218 213 213 212
206 134 134 46 344 318 10 265 360 293 252 265 276 148 258 58 29 21 25 37 166 187 192 195 197 200 199 198 198 200 201 203 204 206 209 209 210 212 213 213 213 215 217 212
49 277 176 92 250 213 287 346 260 218 268 266 248 270 280 17 5 9 20 17 30 178 197 195 199 200 205 205 204 202 203 204 203 203 206 206 206 211 212 207 210 212 212 209
320 264 205 252 277 334 270 240 215 293 291 295 270 230 57 21 360 355 6 17 352 301 211 206 197 200 204 208 208 206 207 207 207 207 205 205 205 206 210 213 212 211 209 207
22 307 287 323 50 287 295 319 272 282 239 239 301 314 62 29 9 355 3 14 10 323 249 205 193 193 196 202 210 204 206 208 207 207 208 208 206 207 209 213 217 216 214 211
10 278 289 218 173 193 256 287 302 276 279 275 281 230 67 58 7 25 19 16 19 22 77 133 178 178 183 191 200 209 211 214 211 206 206 209 207 207 211 213 214 214 215 216
294 276 280 292 349 333 297 279 267 281 284 283 238 270 118 35 23 59 47 28 22 24 57 76 117 131 138 144 147 197 243 229 222 219 213 213 216 214 216 218 216 214 213 214
266 275 277 277 283 276 278 282 280 273 271 280 283 304 302 342 344 94 64 47 52 42 48 64 68 92 109 105 93 99 68 327 255 215 219 220 224 226 226 226 225 223 220 220
241 273 286 273 275 274 273 271 266 263 263 263 264 272 281 338 211 186 162 96 80 52 57 64 89 101 100 103 93 64 44 2 283 247 220 214 219 226 228 227 226 227 229 228
280 273 259 276 285 289 265 253 253 258 257 254 255 266 326 262 228 204 181 167 129 121 101 93 105 97 87 104 122 90 126 263 298 261 266 242 217 243 238 238 238 236 231 229
262 256 270 268 271 250 319 69 307 296 274 255 248 266 277 270 224 198 196 189 167 164 150 128 99 105 98 88 96 129 161 192 209 158 243 283 2 267 254 245 243 242 239 235
251 249 247 249 242 265 277 195 247 239 298 214 239 234 250 224 259 228 214 224 208 182 173 165 143 117 102 109 113 104 105 80 43 14 16 14 349 317 300 278 256 245 238 238
202 231 244 206 269 277 51 58 332 306 255 20 318 280 260 256 252 104 115 142 166 177 186 187 181 184 155 124 128 144 144 146 81 11 15 3 3 344 337 311 281 258 241 241
183 217 230 233 259 280 62 342 298 239 11 350 355 341 307 255 297 13 340 45 245 213 194 197 218 226 204 192 216 185 169 127 41 326 327 330 345 346 349 337 299 267 253 237
237 230 217 245 264 253 41 217 298 348 318 352 353 345 322 312 305 309 326 313 295 252 226 212 219 215 200 201 209 239 244 358 306 311 308 309 317 329 330 321 304 277 263 239
248 253 323 257 27 14 303 301 328 317 313 329 324 316 312 304 298 308 301 310 308 288 245 242 238 219 217 208 213 227 217 320 315 301 294 292 283 274 283 306 316 294 272 250
191 241 252 288 258 299 295 308 306 294 297 306 298 296 297 292 292 292 292 294 299 294 290 277 263 249 240 226 244 284 335 329 316 309 297 292 287 285 295 288 282 270 255 231
312 155 253 265 267 278 276 265 320 315 305 301 303 291 289 285 286 290 289 288 280 280 276 269 270 269 256 247 257 302 350 341 332 324 313 299 287 293 293 279 272 261 260 243
232 244 252 268 314 310 298 300 304 304 302 299 299 301 291 284 281 282 282 282 286 285 279 259 256 248 248 246 261 292 330 331 320 309 303 304 302 287 281 269 266 265 260 257